Location: ?nandapuram
(16.5396°N, 81.1430°E)
Time: 22:32:58
(UTC+00:00)

Aurora 2 Rocket - Pass Details

Date: 14 April 2026
Orbit: 384 x 1529 km, 25.0° (Epoch: 9 May)

Event Time Altitude Azimuth Distance (km) Brightness Sun altitude
Exits shadow 23:25:37 - 292° (WNW) 3,442 5.9 -13.7°
Reaches altitude 10° 23:26:05 10° 293° (WNW) 3,283 5.8 -13.6°
Maximum altitude 23:34:14 69° 15° (NNE) 1,100 3.9 -11.7°
Drops below altitude 10° 23:40:10 10° 99° (E) 2,426 6.8 -10.3°
Sets 23:42:21 0° 101° (ESE) 3,197 7.6 -9.8°
